When you browse on this site, cookies collect data to enhance your experience and personalize the content and advertising you see.
Visit our Privacy Policy to learn more. By continuing to use the site, you agree to this use of cookies and data.
  • En España
  • Lista de países
  • Para 7 días
  • Temperatura del agua
  • El tiempo en el mapa
  • Informadores
  • user-avatar
    Iniciar sesión

    Tiempo cada hora Svobodnyy

    Hoy, 30 Marzo, Lunes

    Tiempo Temperatura Precipitaciones Viento Presión Humedad
    00:00 +8°C° 0 mm 2 mps 731 mmHg 64%
    01:00 +7°C° 0 mm 2 mps 730 mmHg 66%
    02:00 +7°C° 0 mm 2 mps 731 mmHg 65%
    03:00 +8°C° 0 mm 1 mps 730 mmHg 65%
    04:00 +8°C° 0 mm 1 mps 730 mmHg 66%
    05:00 +7°C° 0 mm 1 mps 730 mmHg 66%
    06:00 +7°C° 0 mm 2 mps 730 mmHg 65%
    07:00 +8°C° 0 mm 2 mps 730 mmHg 64%
    08:00 +8°C° 0 mm 2 mps 731 mmHg 64%
    09:00 +9°C° 0 mm 3 mps 731 mmHg 64%
    10:00 +9°C° 0 mm 3 mps 731 mmHg 65%
    11:00 +10°C° 0 mm 4 mps 731 mmHg 65%
    12:00 +9°C° 0 mm 5 mps 731 mmHg 65%
    13:00 +9°C° 0 mm 5 mps 731 mmHg 65%
    14:00 +9°C° 0 mm 5 mps 731 mmHg 66%
    15:00 +7°C° 0 mm 6 mps 731 mmHg 68%
    16:00 +5°C° 0 mm 6 mps 731 mmHg 70%
    17:00 +4°C° 0 mm 6 mps 731 mmHg 73%
    18:00 +3°C° 0 mm 6 mps 731 mmHg 76%
    19:00 +1°C° 0 mm 6 mps 731 mmHg 79%
    20:00 -1°C° 0 mm 6 mps 732 mmHg 83%
    21:00 -2°C° 0.2 mm 6 mps 732 mmHg 86%
    22:00 -1°C° 0.2 mm 5 mps 732 mmHg 89%
    23:00 -2°C° 0.2 mm 5 mps 732 mmHg 93%

    Mañana, 31 Marzo, Martes

    Tiempo Temperatura Precipitaciones Viento Presión Humedad
    00:00 -3°C° 0.1 mm 6 mps 732 mmHg 90%
    01:00 -4°C° 0.1 mm 6 mps 733 mmHg 88%
    02:00 -4°C° 0.1 mm 6 mps 733 mmHg 86%
    03:00 -5°C° 0.2 mm 6 mps 733 mmHg 88%
    04:00 -5°C° 0.2 mm 6 mps 733 mmHg 90%
    05:00 -6°C° 0.2 mm 6 mps 733 mmHg 91%
    06:00 -6°C° 0.3 mm 6 mps 734 mmHg 90%
    07:00 -6°C° 0.3 mm 6 mps 734 mmHg 89%
    08:00 -6°C° 0.3 mm 6 mps 734 mmHg 88%
    09:00 -6°C° 0.2 mm 6 mps 735 mmHg 85%
    10:00 -5°C° 0.2 mm 6 mps 735 mmHg 82%
    11:00 -5°C° 0.2 mm 6 mps 736 mmHg 80%
    12:00 -5°C° 0.1 mm 6 mps 736 mmHg 77%
    13:00 -4°C° 0.1 mm 6 mps 736 mmHg 74%
    14:00 -4°C° 0.1 mm 6 mps 737 mmHg 72%
    15:00 -4°C° 0.1 mm 6 mps 737 mmHg 72%
    16:00 -4°C° 0.1 mm 6 mps 737 mmHg 72%
    17:00 -5°C° 0.1 mm 6 mps 737 mmHg 72%
    18:00 -5°C° 0 mm 5 mps 738 mmHg 73%
    19:00 -6°C° 0 mm 5 mps 738 mmHg 74%
    20:00 -5°C° 0 mm 4 mps 739 mmHg 75%
    21:00 -5°C° 0 mm 4 mps 739 mmHg 74%
    22:00 -7°C° 0 mm 4 mps 739 mmHg 73%
    23:00 -6°C° 0 mm 3 mps 739 mmHg 72%

    Pasado mañana, 1 Abril, Miércoles

    Tiempo Temperatura Precipitaciones Viento Presión Humedad
    00:00 -6°C° 0 mm 3 mps 739 mmHg 72%
    01:00 -7°C° 0 mm 4 mps 739 mmHg 71%
    02:00 -7°C° 0 mm 4 mps 739 mmHg 71%
    03:00 -7°C° 0 mm 4 mps 739 mmHg 71%
    04:00 -6°C° 0 mm 3 mps 739 mmHg 72%
    05:00 -6°C° 0 mm 3 mps 739 mmHg 72%
    06:00 -7°C° 0 mm 4 mps 738 mmHg 65%
    07:00 -5°C° 0 mm 4 mps 738 mmHg 57%
    08:00 -5°C° 0 mm 5 mps 738 mmHg 49%
    09:00 -4°C° 0 mm 5 mps 738 mmHg 46%
    10:00 -3°C° 0 mm 6 mps 737 mmHg 42%
    11:00 -2°C° 0 mm 6 mps 737 mmHg 38%
    12:00 -2°C° 0 mm 7 mps 736 mmHg 39%
    13:00 -1°C° 0 mm 7 mps 736 mmHg 40%
    14:00 -1°C° 0 mm 7 mps 736 mmHg 42%
    15:00 -1°C° 0 mm 7 mps 735 mmHg 47%
    16:00 -1°C° 0 mm 6 mps 734 mmHg 53%
    17:00 -1°C° 0 mm 6 mps 734 mmHg 58%
    18:00 -2°C° 0 mm 6 mps 734 mmHg 62%
    19:00 -2°C° 0 mm 6 mps 734 mmHg 66%
    20:00 -3°C° 0 mm 6 mps 734 mmHg 69%
    21:00 -3°C° 0 mm 6 mps 733 mmHg 70%
    22:00 -3°C° 0 mm 6 mps 733 mmHg 70%
    23:00 -3°C° 0 mm 6 mps 733 mmHg 70%

    2 Abril, Jueves

    Tiempo Temperatura Precipitaciones Viento Presión Humedad
    00:00 -3°C° 0 mm 6 mps 733 mmHg 72%
    01:00 -3°C° 0 mm 6 mps 732 mmHg 73%
    02:00 -3°C° 0 mm 6 mps 732 mmHg 75%
    03:00 -4°C° 0 mm 6 mps 732 mmHg 78%
    04:00 -4°C° 0 mm 6 mps 732 mmHg 81%
    05:00 -4°C° 0 mm 5 mps 732 mmHg 84%
    06:00 -2°C° 0 mm 5 mps 732 mmHg 82%
    07:00 -3°C° 0 mm 6 mps 733 mmHg 81%
    08:00 -2°C° 0 mm 6 mps 733 mmHg 79%
    09:00 -1°C° 0 mm 6 mps 733 mmHg 77%
    10:00 -1°C° 0 mm 6 mps 733 mmHg 76%
    11:00 +1°C° 0 mm 6 mps 733 mmHg 74%
    12:00 +1°C° 0 mm 6 mps 733 mmHg 73%
    13:00 +1°C° 0 mm 6 mps 733 mmHg 72%
    14:00 +2°C° 0 mm 6 mps 733 mmHg 71%
    15:00 +2°C° 0 mm 6 mps 733 mmHg 71%
    16:00 +2°C° 0 mm 5 mps 733 mmHg 71%
    17:00 +3°C° 0 mm 4 mps 732 mmHg 71%
    18:00 +1°C° 0 mm 4 mps 733 mmHg 76%
    19:00 0°C° 0 mm 4 mps 733 mmHg 82%
    20:00 0°C° 0 mm 4 mps 733 mmHg 87%
    21:00 -1°C° 0 mm 4 mps 733 mmHg 88%
    22:00 -1°C° 0 mm 4 mps 733 mmHg 90%
    23:00 -1°C° 0 mm 4 mps 733 mmHg 91%

    3 Abril, Viernes

    Tiempo Temperatura Precipitaciones Viento Presión Humedad
    00:00 -2°C° 0 mm 4 mps 733 mmHg 91%
    01:00 -2°C° 0 mm 4 mps 734 mmHg 92%
    02:00 -2°C° 0 mm 4 mps 734 mmHg 92%
    03:00 -2°C° 0 mm 4 mps 734 mmHg 92%
    04:00 -2°C° 0 mm 4 mps 734 mmHg 91%
    05:00 -2°C° 0 mm 4 mps 733 mmHg 90%
    06:00 -1°C° 0 mm 5 mps 734 mmHg 84%
    07:00 0°C° 0 mm 5 mps 734 mmHg 77%
    08:00 +2°C° 0 mm 6 mps 734 mmHg 70%
    09:00 +3°C° 0 mm 7 mps 733 mmHg 66%
    10:00 +4°C° 0 mm 7 mps 733 mmHg 62%
    11:00 +5°C° 0 mm 8 mps 733 mmHg 58%
    12:00 +5°C° 0 mm 8 mps 733 mmHg 57%
    13:00 +5°C° 0 mm 8 mps 732 mmHg 56%
    14:00 +5°C° 0 mm 8 mps 732 mmHg 56%
    15:00 +5°C° 0 mm 7 mps 732 mmHg 57%
    16:00 +5°C° 0 mm 7 mps 732 mmHg 58%
    17:00 +5°C° 0 mm 6 mps 731 mmHg 59%
    18:00 +5°C° 0 mm 6 mps 732 mmHg 60%
    19:00 +4°C° 0 mm 6 mps 732 mmHg 61%
    20:00 +4°C° 0 mm 6 mps 732 mmHg 62%
    21:00 +4°C° 0 mm 6 mps 732 mmHg 62%
    22:00 +3°C° 0 mm 6 mps 732 mmHg 62%
    23:00 +3°C° 0 mm 6 mps 732 mmHg 61%

    4 Abril, Sábado

    Tiempo Temperatura Precipitaciones Viento Presión Humedad
    00:00 +3°C° 0 mm 6 mps 732 mmHg 65%
    01:00 +2°C° 0 mm 5 mps 732 mmHg 68%
    02:00 +3°C° 0 mm 4 mps 732 mmHg 72%
    03:00 +2°C° 0.2 mm 5 mps 732 mmHg 78%
    04:00 +1°C° 0.2 mm 5 mps 733 mmHg 83%
    05:00 +1°C° 0.2 mm 5 mps 733 mmHg 89%
    06:00 +1°C° 0 mm 5 mps 734 mmHg 84%
    07:00 +2°C° 0 mm 5 mps 734 mmHg 79%
    08:00 +2°C° 0 mm 5 mps 735 mmHg 74%
    09:00 +3°C° 0.1 mm 5 mps 736 mmHg 68%
    10:00 +5°C° 0.1 mm 5 mps 736 mmHg 61%
    11:00 +5°C° 0.1 mm 6 mps 737 mmHg 54%
    12:00 +5°C° 0 mm 6 mps 737 mmHg 51%
    13:00 +5°C° 0 mm 6 mps 738 mmHg 48%
    14:00 +5°C° 0 mm 6 mps 738 mmHg 45%
    15:00 +4°C° 0 mm 6 mps 738 mmHg 47%
    16:00 +3°C° 0 mm 6 mps 739 mmHg 48%
    17:00 +2°C° 0 mm 6 mps 739 mmHg 50%
    18:00 +2°C° 0 mm 5 mps 740 mmHg 53%
    19:00 +2°C° 0 mm 3 mps 741 mmHg 57%
    20:00 +2°C° 0 mm 2 mps 742 mmHg 60%
    21:00 +1°C° 0 mm 2 mps 742 mmHg 62%
    22:00 +1°C° 0 mm 2 mps 743 mmHg 65%
    23:00 -1°C° 0 mm 2 mps 743 mmHg 67%
    Mostrar más